This is the latest recevied weather packets stored in our database for station/object KK6LZB. If no packets are shown the sender has not sent any weather packets the latest 10 day(s).
| Time | Temp. | Humidity | Pressure | Rain* | Wind** | Luminosity | Snow |
|---|---|---|---|---|---|---|---|
| 1777947651 | 15.56° C | 82% | 1016.8 hPa | 0 mm | - | 7 W/m² | - |
| 1777947347 | 16.11° C | 81% | 1016.9 hPa | 0 mm | - | 11 W/m² | - |
| 1777947044 | 16.11° C | 80% | 1017 hPa | 0 mm | - | 13 W/m² | - |
| 1777946744 | 16.11° C | 80% | 1017 hPa | 0 mm | - | 18 W/m² | - |
| 1777946441 | 16.11° C | 80% | 1016.9 hPa | 0 mm | - | 24 W/m² | - |
| 1777946138 | 16.11° C | 79% | 1016.8 hPa | 0 mm | - | 25 W/m² | - |
| 1777945835 | 16.67° C | 79% | 1016.9 hPa | 0 mm | - | 32 W/m² | - |
| 1777945532 | 16.67° C | 79% | 1016.8 hPa | 0 mm | - | 38 W/m² | - |
| 1777945229 | 16.67° C | 80% | 1016.9 hPa | 0 mm | - | 37 W/m² | - |
| 1777944926 | 16.67° C | 80% | 1016.7 hPa | 0 mm | - | 41 W/m² | - |
| 1777944624 | 16.67° C | 80% | 1016.9 hPa | 0 mm | - | 44 W/m² | - |
| 1777944322 | 16.67° C | 80% | 1016.7 hPa | 0 mm | - | 50 W/m² | - |
| 1777944018 | 16.67° C | 81% | 1017 hPa | 0 mm | - | 52 W/m² | - |
| 1777943714 | 16.67° C | 80% | 1016.8 hPa | 0 mm | - | 55 W/m² | - |
| 1777943411 | 16.67° C | 79% | 1017 hPa | 0 mm | - | 64 W/m² | - |
| 1777943106 | 16.67° C | 79% | 1017 hPa | 0 mm | - | 79 W/m² | - |
| 1777942803 | 16.67° C | 79% | 1017.1 hPa | 0 mm | - | 76 W/m² | - |
| 1777942499 | 16.67° C | 79% | 1017.1 hPa | 0 mm | - | 88 W/m² | - |
| 1777942197 | 16.67° C | 77% | 1017 hPa | 0 mm | - | 89 W/m² | - |
| 1777941894 | 17.22° C | 79% | 1016.9 hPa | 0 mm | - | 95 W/m² | - |
| 1777941591 | 17.22° C | 76% | 1017 hPa | 0 mm | - | 146 W/m² | - |
| 1777941288 | 17.22° C | 75% | 1017.1 hPa | 0 mm | - | 150 W/m² | - |
| 1777940984 | 17.22° C | 77% | 1017.1 hPa | 0 mm | - | 136 W/m² | - |
| 1777940680 | 17.22° C | 76% | 1017.1 hPa | 0 mm | - | 116 W/m² | - |
| 1777940379 | 17.22° C | 75% | 1017.1 hPa | 0 mm | - | 115 W/m² | - |
* Rain latest hour (hover to see other rain measurements)
** Current wind speed in m/s (hover to see current wind gust speed)